| time (UTC) | temp F | wind direction | speed knots | gust knots | rain 1hr in | rain 24hr in | rain mn in | humidity % | barometer mb |
| 20260505041740 | 44 | 255 | 5.2 | 13.0 | 0.00 | 0.00 | 0.00 | 89 | 1006.6 |
| 20260505041237 | 44 | 245 | 9.6 | 13.0 | 0.00 | 0.00 | 0.00 | 88 | 1006.6 |
| 20260505040735 | 44 | 249 | 7.0 | 15.6 | 0.00 | 0.00 | 0.00 | 88 | 1006.1 |
| 20260505040232 | 45 | 261 | 8.7 | 14.8 | 0.00 | 0.00 | 0.00 | 87 | 1006.3 |
| 20260505035729 | 45 | 248 | 11.3 | 20.9 | 0.00 | 0.00 | 0.00 | 87 | 1006.2 |
| 20260505035224 | 45 | 239 | 9.6 | 20.0 | 0.00 | 0.00 | 0.00 | 87 | 1006.3 |
| 20260505034722 | 45 | 244 | 11.3 | 19.1 | 0.00 | 0.00 | 0.00 | 87 | 1006.0 |
| 20260505034218 | 45 | 239 | 15.6 | 20.0 | 0.00 | 0.00 | 0.00 | 86 | 1005.9 |
| 20260505033715 | 45 | 245 | 17.4 | 20.9 | 0.00 | 0.00 | 0.00 | 86 | 1005.7 |
| 20260505033213 | 45 | 248 | 16.5 | 18.2 | 0.00 | 0.00 | 0.00 | 86 | 1005.7 |
| 20260505032711 | 45 | 243 | 11.3 | 20.0 | 0.00 | 0.00 | 0.00 | 86 | 1005.7 |
| 20260505032206 | 45 | 236 | 12.2 | 16.5 | 0.00 | 0.00 | 0.00 | 86 | 1005.5 |
| 20260505031704 | 45 | 238 | 11.3 | 14.8 | 0.00 | 0.00 | 0.00 | 85 | 1005.7 |
| 20260505031200 | 45 | 251 | 13.0 | 20.0 | 0.00 | 0.00 | 0.00 | 84 | 1005.6 |
| 20260505030657 | 46 | 242 | 13.9 | 19.1 | 0.00 | 0.00 | 0.00 | 84 | 1005.4 |
| 20260505030153 | 46 | 239 | 11.3 | 19.1 | 0.00 | 0.00 | 0.00 | 83 | 1005.4 |
| 20260505025649 | 46 | 244 | 13.0 | 17.4 | 0.00 | 0.01 | 0.01 | 84 | 1005.0 |
| 20260505025148 | 45 | 246 | 13.0 | 20.0 | 0.00 | 0.01 | 0.01 | 84 | 1005.0 |
| 20260505024645 | 45 | 236 | 12.2 | 17.4 | 0.00 | 0.01 | 0.01 | 84 | 1005.3 |
| 20260505024142 | 45 | 234 | 13.0 | 18.2 | 0.00 | 0.01 | 0.01 | 85 | 1004.9 |
| 20260505023639 | 45 | 245 | 14.8 | 17.4 | 0.00 | 0.01 | 0.01 | 85 | 1004.8 |
| 20260505023137 | 46 | 248 | 11.3 | 21.7 | 0.00 | 0.01 | 0.01 | 85 | 1004.9 |
| 20260505022634 | 46 | 239 | 13.9 | 19.1 | 0.00 | 0.01 | 0.01 | 84 | 1004.9 |
| 20260505022131 | 46 | 253 | 11.3 | 23.5 | 0.00 | 0.01 | 0.01 | 84 | 1004.6 |
| 20260505021627 | 46 | 248 | 13.9 | 19.1 | 0.00 | 0.01 | 0.01 | 84 | 1004.4 |
| 20260505021124 | 46 | 239 | 14.8 | 19.1 | 0.00 | 0.01 | 0.01 | 83 | 1004.5 |
| 20260505020620 | 46 | 240 | 12.2 | 15.6 | 0.00 | 0.01 | 0.01 | 84 | 1004.5 |
| 20260505020116 | 46 | 242 | 11.3 | 17.4 | 0.00 | 0.01 | 0.01 | 83 | 1004.5 |
| 20260505015613 | 46 | 244 | 13.0 | 17.4 | 0.00 | 0.01 | 0.01 | 83 | 1004.3 |
| 20260505015110 | 46 | 244 | 11.3 | 15.6 | 0.00 | 0.01 | 0.01 | 83 | 1004.3 |
| 20260505014607 | 46 | 250 | 12.2 | 18.2 | 0.00 | 0.01 | 0.01 | 82 | 1004.2 |
| 20260505014104 | 46 | 237 | 15.6 | 18.2 | 0.00 | 0.01 | 0.01 | 81 | 1004.2 |
| 20260505013601 | 47 | 241 | 13.0 | 20.9 | 0.00 | 0.01 | 0.01 | 80 | 1004.1 |
| 20260505013058 | 47 | 244 | 13.0 | 20.9 | 0.00 | 0.01 | 0.01 | 79 | 1004.1 |
| 20260505012556 | 47 | 247 | 13.0 | 20.9 | 0.00 | 0.01 | 0.01 | 78 | 1004.0 |
| 20260505012053 | 47 | 233 | 12.2 | 20.0 | 0.00 | 0.01 | 0.01 | 77 | 1003.7 |
| 20260505011548 | 48 | 242 | 15.6 | 23.5 | 0.00 | 0.01 | 0.01 | 77 | 1003.8 |
| 20260505011046 | 48 | 242 | 13.9 | 23.5 | 0.00 | 0.01 | 0.01 | 76 | 1003.9 |
| 20260505010541 | 48 | 236 | 16.5 | 21.7 | 0.00 | 0.01 | 0.01 | 75 | 1003.7 |
| 20260505010038 | 48 | 236 | 11.3 | 24.3 | 0.00 | 0.01 | 0.01 | 76 | 1003.6 |
| 20260505005534 | 48 | 240 | 19.1 | 24.3 | 0.00 | 0.01 | 0.01 | 75 | 1003.6 |
| 20260505005032 | 48 | 249 | 14.8 | 23.5 | 0.00 | 0.01 | 0.01 | 74 | 1003.5 |
| 20260505004529 | 48 | 241 | 13.9 | 22.6 | 0.00 | 0.01 | 0.01 | 74 | 1003.7 |
| 20260505004026 | 48 | 231 | 16.5 | 21.7 | 0.00 | 0.01 | 0.01 | 74 | 1003.5 |
| 20260505003523 | 48 | 248 | 15.6 | 22.6 | 0.00 | 0.01 | 0.01 | 74 | 1003.3 |
| 20260505003020 | 48 | 239 | 17.4 | 22.6 | 0.00 | 0.01 | 0.01 | 74 | 1003.2 |
| 20260505002521 | 48 | 241 | 15.6 | 25.2 | 0.00 | 0.01 | 0.01 | 74 | 1003.2 |
| 20260505002020 | 48 | 242 | 13.9 | 23.5 | 0.00 | 0.01 | 0.01 | 73 | 1003.2 |
| 20260505001517 | 49 | 231 | 17.4 | 26.1 | 0.00 | 0.01 | 0.01 | 72 | 1003.2 |
| 20260505001014 | 49 | 238 | 20.9 | 26.1 | 0.00 | 0.01 | 0.01 | 71 | 1002.8 |
| 20260505000511 | 49 | 239 | 20.9 | 22.6 | 0.00 | 0.01 | 0.01 | 71 | 1002.9 |
| 20260505000009 | 49 | 238 | 13.0 | 25.2 | 0.00 | 0.01 | 0.01 | 71 | 1002.8 |
| 20260504235505 | 49 | 235 | 16.5 | 22.6 | 0.00 | 0.01 | 0.01 | 71 | 1002.7 |
| 20260504235002 | 49 | 240 | 10.4 | 23.5 | 0.00 | 0.01 | 0.01 | 70 | 1002.6 |
| 20260504234459 | 49 | 243 | 15.6 | 23.5 | 0.00 | 0.01 | 0.01 | 68 | 1002.6 |
| 20260504233955 | 49 | 233 | 12.2 | 22.6 | 0.00 | 0.01 | 0.01 | 68 | 1002.4 |
| 20260504233451 | 49 | 234 | 14.8 | 22.6 | 0.00 | 0.01 | 0.01 | 69 | 1002.2 |
| 20260504232948 | 49 | 232 | 13.9 | 20.0 | 0.00 | 0.01 | 0.01 | 68 | 1002.2 |
| 20260504232445 | 50 | 237 | 12.2 | 20.0 | 0.00 | 0.01 | 0.01 | 66 | 1002.2 |
| 20260504231943 | 50 | 232 | 13.9 | 20.0 | 0.00 | 0.01 | 0.01 | 65 | 1002.1 |
| 20260504231439 | 50 | 234 | 9.6 | 20.9 | 0.00 | 0.01 | 0.01 | 64 | 1002.0 |
| 20260504230935 | 50 | 238 | 7.8 | 20.0 | 0.00 | 0.01 | 0.01 | 65 | 1001.9 |
| 20260504230432 | 50 | 236 | 15.6 | 20.0 | 0.00 | 0.01 | 0.01 | 64 | 1001.9 |
| 20260504225931 | 50 | 243 | 14.8 | 22.6 | 0.00 | 0.01 | 0.01 | 64 | 1001.7 |
| 20260504225427 | 50 | 228 | 10.4 | 19.1 | 0.00 | 0.01 | 0.01 | 64 | 1001.9 |
| 20260504224925 | 50 | 234 | 14.8 | 19.1 | 0.00 | 0.01 | 0.01 | 63 | 1001.6 |
| 20260504224421 | 50 | 223 | 12.2 | 16.5 | 0.00 | 0.01 | 0.01 | 64 | 1001.8 |
| 20260504223919 | 50 | 225 | 13.0 | 19.1 | 0.00 | 0.01 | 0.01 | 64 | 1001.8 |
| 20260504223414 | 50 | 245 | 18.2 | 19.1 | 0.00 | 0.01 | 0.01 | 63 | 1001.6 |
| 20260504222910 | 50 | 231 | 9.6 | 19.1 | 0.00 | 0.01 | 0.01 | 64 | 1001.6 |
| 20260504222408 | 49 | 238 | 11.3 | 21.7 | 0.00 | 0.01 | 0.01 | 66 | 1001.5 |
| 20260504221906 | 49 | 240 | 14.8 | 20.9 | 0.00 | 0.01 | 0.01 | 62 | 1001.3 |
| 20260504221402 | 49 | 248 | 11.3 | 21.7 | 0.00 | 0.01 | 0.01 | 63 | 1001.5 |
| 20260504220859 | 50 | 229 | 14.8 | 20.0 | 0.00 | 0.01 | 0.01 | 63 | 1001.4 |
| 20260504220356 | 50 | 242 | 13.9 | 26.1 | 0.00 | 0.01 | 0.01 | 61 | 1001.3 |
| 20260504215853 | 49 | 235 | 20.0 | 22.6 | 0.00 | 0.01 | 0.01 | 64 | 1001.3 |
| 20260504215349 | 49 | 243 | 16.5 | 20.9 | 0.00 | 0.01 | 0.01 | 68 | 1001.2 |
| 20260504214846 | 49 | 244 | 13.0 | 19.1 | 0.00 | 0.01 | 0.01 | 67 | 1001.3 |
| 20260504214343 | 49 | 247 | 13.0 | 23.5 | 0.00 | 0.01 | 0.01 | 68 | 1001.3 |
| 20260504213839 | 49 | 249 | 17.4 | 20.9 | 0.00 | 0.01 | 0.01 | 70 | 1001.2 |
| 20260504213335 | 50 | 239 | 16.5 | 18.2 | 0.00 | 0.01 | 0.01 | 69 | 1001.3 |
| 20260504212833 | 49 | 241 | 13.0 | 21.7 | 0.00 | 0.01 | 0.01 | 69 | 1001.4 |
| 20260504212328 | 50 | 243 | 13.9 | 19.1 | 0.00 | 0.01 | 0.01 | 68 | 1001.4 |
| 20260504211827 | 50 | 240 | 13.9 | 20.0 | 0.00 | 0.01 | 0.01 | 67 | 1001.3 |
| 20260504211328 | 50 | 249 | 12.2 | 17.4 | 0.00 | 0.01 | 0.01 | 67 | 1001.2 |
| 20260504210825 | 51 | 242 | 17.4 | 18.2 | 0.00 | 0.01 | 0.01 | 63 | 1001.2 |
| 20260504210322 | 53 | 244 | 13.9 | 21.7 | 0.00 | 0.01 | 0.01 | 59 | 1001.2 |
| 20260504205819 | 52 | 243 | 14.8 | 19.1 | 0.00 | 0.01 | 0.01 | 63 | 1001.1 |
| 20260504205317 | 52 | 243 | 11.3 | 18.2 | 0.00 | 0.01 | 0.01 | 63 | 1001.1 |
| 20260504204815 | 51 | 256 | 13.9 | 16.5 | 0.00 | 0.01 | 0.01 | 63 | 1000.9 |
| 20260504204313 | 51 | 244 | 12.2 | 20.0 | 0.00 | 0.01 | 0.01 | 64 | 1000.7 |
| 20260504203812 | 51 | 245 | 14.8 | 20.9 | 0.00 | 0.01 | 0.01 | 62 | 1000.8 |
| 20260504203309 | 51 | 241 | 13.0 | 23.5 | 0.00 | 0.01 | 0.01 | 63 | 1000.4 |
| 20260504202804 | 52 | 255 | 10.4 | 20.0 | 0.00 | 0.01 | 0.01 | 61 | 1000.5 |
| 20260504202302 | 52 | 249 | 12.2 | 19.1 | 0.00 | 0.01 | 0.01 | 61 | 1000.5 |
| 20260504201758 | 51 | 241 | 13.0 | 19.1 | 0.00 | 0.01 | 0.01 | 62 | 1000.5 |
| 20260504201255 | 51 | 239 | 14.8 | 17.4 | 0.00 | 0.01 | 0.01 | 64 | 1000.5 |
| 20260504200754 | 51 | 255 | 8.7 | 16.5 | 0.00 | 0.01 | 0.01 | 64 | 1000.6 |
| 20260504200249 | 51 | 236 | 16.5 | 20.0 | 0.00 | 0.01 | 0.01 | 62 | 1000.6 |
| 20260504195746 | 51 | 235 | 10.4 | 15.6 | 0.00 | 0.01 | 0.01 | 65 | 1000.5 |
| 20260504195241 | 51 | 246 | 20.0 | 22.6 | 0.00 | 0.01 | 0.01 | 61 | 1000.3 |
| 20260504194739 | 51 | 244 | 16.5 | 19.1 | 0.00 | 0.01 | 0.01 | 62 | 1000.1 |
| 20260504194235 | 51 | 245 | 15.6 | 19.1 | 0.00 | 0.01 | 0.01 | 61 | 1000.2 |
| 20260504193731 | 51 | 243 | 14.8 | 19.1 | 0.00 | 0.01 | 0.01 | 62 | 1000.0 |
| 20260504193229 | 51 | 252 | 15.6 | 24.3 | 0.00 | 0.01 | 0.01 | 61 | 1000.2 |
| 20260504192727 | 51 | 247 | 13.9 | 19.1 | 0.00 | 0.01 | 0.01 | 63 | 1000.0 |
| 20260504192225 | 50 | 241 | 18.2 | 21.7 | 0.00 | 0.01 | 0.01 | 62 | 1000.1 |
| 20260504191723 | 50 | 242 | 13.9 | 17.4 | 0.00 | 0.01 | 0.01 | 64 | 1000.0 |
| 20260504191220 | 50 | 244 | 13.9 | 21.7 | 0.00 | 0.01 | 0.01 | 64 | 999.8 |
| 20260504190715 | 50 | 236 | 17.4 | 23.5 | 0.00 | 0.01 | 0.01 | 63 | 1000.1 |
| 20260504190212 | 50 | 245 | 18.2 | 24.3 | 0.00 | 0.01 | 0.01 | 63 | 1000.2 |
| 20260504185708 | 50 | 241 | 17.4 | 24.3 | 0.00 | 0.01 | 0.01 | 66 | 1000.2 |
| 20260504185205 | 50 | 250 | 13.9 | 19.1 | 0.00 | 0.01 | 0.01 | 67 | 999.9 |
| 20260504184701 | 50 | 262 | 19.1 | 20.0 | 0.00 | 0.01 | 0.01 | 64 | 1000.1 |
| 20260504184156 | 50 | 242 | 11.3 | 18.2 | 0.00 | 0.01 | 0.01 | 67 | 1000.0 |
| 20260504183653 | 50 | 255 | 14.8 | 19.1 | 0.00 | 0.01 | 0.01 | 67 | 1000.1 |
| 20260504183150 | 50 | 257 | 13.0 | 20.0 | 0.00 | 0.01 | 0.01 | 66 | 999.9 |
| 20260504182648 | 50 | 253 | 9.6 | 17.4 | 0.00 | 0.01 | 0.01 | 67 | 999.8 |
| 20260504182145 | 49 | 247 | 12.2 | 21.7 | 0.00 | 0.01 | 0.01 | 68 | 999.8 |
| 20260504181643 | 49 | 260 | 15.6 | 21.7 | 0.00 | 0.01 | 0.01 | 69 | 999.9 |
| 20260504181140 | 49 | 246 | 20.9 | 23.5 | 0.00 | 0.01 | 0.01 | 69 | 999.9 |
| 20260504180639 | 49 | 252 | 13.9 | 22.6 | 0.00 | 0.01 | 0.01 | 69 | 1000.0 |
| 20260504180138 | 48 | 251 | 15.6 | 26.9 | 0.00 | 0.01 | 0.01 | 71 | 999.9 |
| 20260504175634 | 48 | 243 | 15.6 | 25.2 | 0.00 | 0.01 | 0.01 | 71 | 1000.1 |
| 20260504175131 | 48 | 243 | 22.6 | 26.1 | 0.00 | 0.01 | 0.01 | 71 | 999.8 |
| 20260504174630 | 48 | 243 | 20.9 | 26.9 | 0.00 | 0.01 | 0.01 | 73 | 999.8 |
| 20260504174125 | 49 | 250 | 14.8 | 22.6 | 0.00 | 0.01 | 0.01 | 73 | 999.9 |
| 20260504173623 | 48 | 249 | 14.8 | 24.3 | 0.00 | 0.01 | 0.01 | 73 | 999.6 |
| 20260504173120 | 48 | 256 | 12.2 | 24.3 | 0.00 | 0.01 | 0.01 | 75 | 999.5 |
| 20260504172616 | 49 | 240 | 13.0 | 26.1 | 0.00 | 0.01 | 0.01 | 72 | 999.5 |
| 20260504172113 | 48 | 251 | 15.6 | 26.1 | 0.00 | 0.01 | 0.01 | 73 | 999.4 |
| 20260504171609 | 48 | 251 | 12.2 | 22.6 | 0.00 | 0.01 | 0.01 | 75 | 999.6 |
| 20260504171107 | 48 | 245 | 14.8 | 22.6 | 0.00 | 0.01 | 0.01 | 75 | 999.4 |
| 20260504170602 | 49 | 237 | 18.2 | 27.8 | 0.00 | 0.01 | 0.01 | 73 | 999.2 |
| 20260504150946 | 46 | 275 | 18.2 | 25.2 | 0.00 | 0.01 | 0.01 | 85 | 998.1 |
| 20260504150443 | 46 | 261 | 23.5 | 27.8 | 0.00 | 0.01 | 0.01 | 84 | 998.1 |
| 20260504140910 | 44 | 278 | 22.6 | 32.2 | 0.00 | 0.01 | 0.01 | 83 | 997.3 |
| 20260504140405 | 44 | 276 | 26.1 | 33.0 | 0.00 | 0.01 | 0.01 | 84 | 997.0 |
| 20260504130331 | 43 | 275 | 17.4 | 25.2 | 0.00 | 0.01 | 0.01 | 90 | 996.0 |
| 20260504120254 | 41 | 289 | 13.0 | 23.5 | 0.00 | 0.01 | 0.01 | 94 | 994.8 |
| 20260504110218 | 40 | 303 | 12.2 | 24.3 | 0.02 | 0.01 | 0.01 | 96 | 992.9 |
| 20260504100142 | 39 | 309 | 20.0 | 28.7 | 0.00 | 0.00 | 0.00 | 95 | 991.4 |
| 20260504090104 | 37 | 304 | 19.1 | 29.5 | 0.00 | 0.00 | 0.00 | 96 | 989.1 |
| 20260504081535 | 36 | 299 | 17.4 | 27.8 | 0.00 | 0.00 | 0.00 | 98 | 987.4 |
| 20260504081030 | 35 | 302 | 23.5 | 32.2 | 0.00 | 0.00 | 0.00 | 98 | 987.0 |
| 20260504080527 | 35 | 308 | 20.9 | 34.8 | 0.00 | 0.00 | 0.00 | 98 | 986.9 |
| 20260504050340 | 37 | 346 | 23.5 | 33.0 | 0.00 | 0.00 | 0.00 | 98 | 981.1 |
| 20260504045838 | 37 | 349 | 22.6 | 28.7 | 0.00 | 0.00 | 0.00 | 98 | 981.2 |
| 20260504045338 | 37 | 344 | 21.7 | 33.0 | 0.00 | 0.00 | 0.00 | 98 | 981.3 |
| 20260504044835 | 37 | 344 | 20.9 | 29.5 | 0.00 | 0.00 | 0.00 | 98 | 981.0 |
| 20260504044332 | 37 | 346 | 19.1 | 31.3 | 0.00 | 0.00 | 0.00 | 98 | 981.0 |
| 20260504043830 | 37 | 342 | 22.6 | 32.2 | 0.00 | 0.00 | 0.00 | 98 | 980.9 |
| 20260504043326 | 37 | 340 | 17.4 | 27.8 | 0.00 | 0.00 | 0.00 | 98 | 980.7 |
| 20260504042824 | 37 | 345 | 28.7 | 31.3 | 0.00 | 0.00 | 0.00 | 98 | 980.4 |
| 20260504042320 | 37 | 342 | 24.3 | 26.9 | 0.00 | 0.00 | 0.00 | 98 | 980.3 |
| 20260504041816 | 37 | 350 | 19.1 | 27.8 | 0.00 | 0.00 | 0.00 | 98 | 980.4 |